Regional Weather Roundup
Issued by NWS

Home | Current Version | Previous Version | Text Only | Print | Product List | Glossary On
Versions: 1 2 3 4 5 6 7 8 9 10 11 12 13 14 15 16 17 18 19 20 21 22 23 24 25 26 27 28 29 30 31 32 33 34 35 36 37 38 39 40 41 42 43 44 45 46 47 48 49 50
000
ASUS43 KLSX 160807
RWRMO

WEATHER SUMMARY FOR MISSOURI
NATIONAL WEATHER SERVICE SPRINGFIELD MO
300 AM CDT WED APR 16 2014

NOTE: "FAIR" INDICATES FEW OR NO CLOUDS BELOW 12,000 FEET WITH NO
       SIGNIFICANT WEATHER AND/OR OBSTRUCTIONS TO VISIBILITY.
       CURRENT SKY AND/OR WEATHER CONDITIONS ARE NOT AVAILABLE FOR
       CHILLICOTHE AND FARMINGTON.

MOZ001>031-035>038-043-044-053-054-160900-
...NORTHERN AND WESTERN MISSOURI...

CITY           SKY/WX    TMP DP  RH WIND       PRES   REMARKS
KANSAS CTY INT PTCLDY    46  25  43 S21       29.96F
KANSAS C DTWN  PTCLDY    47  25  42 S13G25    29.99F
LEE`S SUMMIT   PTCLDY    45  25  45 S13G21    30.00F
ST JOSEPH      PTCLDY    45  27  49 S18       29.94F
CHILLICOTHE      N/A     43  25  49 SE12      30.03F
KIRKSVILLE     CLEAR     37  25  61 S13       30.05F WCI  29

$$
MOZ066>068-077>081-088>096-101>105-160900-
...SOUTHWEST MISSOURI...

CITY           SKY/WX    TMP DP  RH WIND       PRES   REMARKS
SPRINGFIELD    CLEAR     42  24  49 SE16      30.09F
JOPLIN         CLEAR     43  25  49 SE10      30.05F

$$
MOZ032>034-039>042-045>050-055>058-069>072-160900-
...CENTRAL MISSOURI...

CITY           SKY/WX    TMP DP  RH WIND       PRES   REMARKS
COLUMBIA       CLEAR     37  23  56 SE10      30.12S WCI  30
JEFFERSON CITY PTCLDY    40  23  50 E9        30.14S
ROLLA          MOCLDY    37  24  59 S15G23    30.13S WCI  28
SEDALIA        CLEAR     42  25  50 S13       30.08S
WHITEMAN AFB   CLEAR     42  22  45 S12       30.05F
OSAGE BEACH    MOCLDY    39  21  48 SE6       30.14S

$$
MOZ051-052-059>065-160900-
...EAST CENTRAL MISSOURI...

CITY           SKY/WX    TMP DP  RH WIND       PRES   REMARKS
ST LOUIS INTL  PTCLDY    41  22  46 SE12      30.21F
SPIRIT OF STL  PTCLDY    39  21  48 SE5       30.20S
ST CHARLES     CLEAR     37  26  64 S9        30.20F

$$
MOZ072>076-082>087-097>100-106>115-160900-
...SOUTH CENTRAL AND SOUTHEAST MISSOURI...

CITY           SKY/WX    TMP DP  RH WIND       PRES   REMARKS
CAPE GIRARDEAU CLEAR     34  28  79 SE8       30.26F WCI  27
FARMINGTON     PTCLDY    34  21  60 S6        30.23S WCI  29
POPLAR BLUFF   CLEAR     37  31  78 MISG      30.24F
WEST PLAINS    CLEAR     36  25  64 SE5       30.18F

$$



USA.gov is the U.S. government's official web portal to all federal, state and local government web resources and services.